Location: Aciu?a
(46.2833°N, 22.4500°E)
Time: 03:18:47
(UTC+00:00)

Cosmos 1605 Rocket - Pass Details

Date: 25 October 2021
Orbit: 945 x 1005 km, 82.9° (Epoch: 30 November)

Event Time Altitude Azimuth Distance (km) Brightness Sun altitude
Rises 17:20:59 0° 197° (SSW) 3,667 7.2 -20.4°
Reaches altitude 10° 17:23:31 10° 201° (SSW) 2,732 6.5 -20.8°
Maximum altitude 17:29:44 63° 282° (WNW) 1,105 4.5 -21.9°
Drops below altitude 10° 17:36:05 10° 3° (N) 2,784 6.4 -23.0°
Sets 17:38:40 0° 7° (N) 3,742 7.1 -23.4°
